When you browse on this site, cookies collect data to enhance your experience and personalize the content and advertising you see.
Visit our Privacy Policy to learn more. By continuing to use the site, you agree to this use of cookies and data.
  • In United Kingdom
  • List of Countries
  • For 7 days
  • Water Temperature
  • Weather Map
  • Weather Widgets
  • user-avatar
    Login

    Hourly Weather Yelsk

    Today, 20 February, Thursday

    Time Temperature Precipitation Wind Pressure Humidity
    00:00 +2°C° 0 mm 2 mps 747 mmHg 81%
    01:00 +2°C° 0 mm 2 mps 747 mmHg 82%
    02:00 +1°C° 0 mm 2 mps 747 mmHg 85%
    03:00 +1°C° 0 mm 2 mps 747 mmHg 86%
    04:00 +3°C° 0 mm 1 mps 747 mmHg 88%
    05:00 +3°C° 0 mm 1 mps 747 mmHg 89%
    06:00 +3°C° 0 mm 1 mps 747 mmHg 90%
    07:00 +1°C° 0 mm 2 mps 747 mmHg 92%
    08:00 +1°C° 0 mm 2 mps 748 mmHg 92%
    09:00 +2°C° 0 mm 2 mps 748 mmHg 88%
    10:00 +4°C° 0 mm 2 mps 748 mmHg 85%
    11:00 +5°C° 0 mm 2 mps 749 mmHg 81%
    12:00 +5°C° 0 mm 2 mps 749 mmHg 79%
    13:00 +6°C° 0 mm 2 mps 749 mmHg 77%
    14:00 +6°C° 0 mm 2 mps 749 mmHg 75%
    15:00 +6°C° 0 mm 2 mps 749 mmHg 77%
    16:00 +6°C° 0 mm 1 mps 749 mmHg 79%
    17:00 +6°C° 0 mm 1 mps 750 mmHg 81%
    18:00 +5°C° 0 mm 1 mps 750 mmHg 84%
    19:00 +5°C° 0 mm 1 mps 750 mmHg 88%
    20:00 +4°C° 0 mm 1 mps 750 mmHg 91%
    21:00 +4°C° 0 mm 1 mps 751 mmHg 91%
    22:00 +4°C° 0 mm 1 mps 751 mmHg 92%
    23:00 +4°C° 0 mm 1 mps 751 mmHg 92%

    Tomorrow, 21 February, Friday

    Time Temperature Precipitation Wind Pressure Humidity
    00:00 +4°C° 0 mm 1 mps 751 mmHg 92%
    01:00 +3°C° 0 mm 1 mps 751 mmHg 92%
    02:00 +3°C° 0 mm 1 mps 751 mmHg 92%
    03:00 +3°C° 0 mm 1 mps 751 mmHg 92%
    04:00 +2°C° 0 mm 1 mps 750 mmHg 93%
    05:00 +2°C° 0 mm 1 mps 750 mmHg 94%
    06:00 +2°C° 0 mm 1 mps 750 mmHg 93%
    07:00 +2°C° 0 mm 1 mps 750 mmHg 93%
    08:00 +1°C° 0 mm 2 mps 750 mmHg 93%
    15:00 +5°C° 0 mm 3 mps 748 mmHg 67%
    16:00 +4°C° 0 mm 3 mps 748 mmHg 69%
    17:00 +5°C° 0 mm 2 mps 748 mmHg 71%
    18:00 +4°C° 0 mm 2 mps 748 mmHg 76%
    19:00 +4°C° 0 mm 2 mps 749 mmHg 80%
    20:00 +3°C° 0 mm 2 mps 749 mmHg 85%
    21:00 +3°C° 0 mm 2 mps 749 mmHg 86%
    22:00 +2°C° 0 mm 2 mps 749 mmHg 88%
    23:00 +2°C° 0 mm 2 mps 749 mmHg 89%

    Day after tomorrow, 22 February, Saturday

    Time Temperature Precipitation Wind Pressure Humidity
    00:00 +1°C° 0 mm 2 mps 750 mmHg 90%
    01:00 +1°C° 0 mm 2 mps 750 mmHg 91%
    02:00 +1°C° 0 mm 1 mps 750 mmHg 91%
    03:00 +1°C° 0 mm 1 mps 750 mmHg 92%
    04:00 +1°C° 0 mm 1 mps 751 mmHg 93%
    05:00 +1°C° 0 mm 1 mps 751 mmHg 93%
    06:00 +2°C° 0 mm 1 mps 751 mmHg 93%
    07:00 +2°C° 0 mm 1 mps 752 mmHg 93%
    08:00 +2°C° 0 mm 1 mps 752 mmHg 93%
    09:00 +3°C° 0 mm 1 mps 752 mmHg 92%
    10:00 +2°C° 0 mm 2 mps 752 mmHg 91%
    11:00 +3°C° 0 mm 2 mps 752 mmHg 90%
    12:00 +3°C° 0 mm 2 mps 752 mmHg 84%
    13:00 +4°C° 0 mm 2 mps 752 mmHg 78%
    14:00 +5°C° 0 mm 2 mps 752 mmHg 73%
    15:00 +4°C° 0 mm 2 mps 751 mmHg 72%
    16:00 +3°C° 0 mm 3 mps 750 mmHg 71%
    17:00 +3°C° 0 mm 3 mps 750 mmHg 70%
    18:00 +3°C° 0 mm 3 mps 749 mmHg 71%
    19:00 +1°C° 0 mm 4 mps 749 mmHg 73%
    20:00 +1°C° 0 mm 4 mps 749 mmHg 75%
    21:00 +1°C° 0 mm 5 mps 748 mmHg 73%
    22:00 +1°C° 0 mm 6 mps 747 mmHg 71%
    23:00 +2°C° 0 mm 7 mps 746 mmHg 69%

    23 February, Sunday

    Time Temperature Precipitation Wind Pressure Humidity
    00:00 0°C° 0.3 mm 7 mps 745 mmHg 76%
    01:00 0°C° 0.3 mm 7 mps 744 mmHg 83%
    02:00 -1°C° 0.3 mm 8 mps 743 mmHg 90%
    03:00 0°C° 0.7 mm 8 mps 742 mmHg 89%
    04:00 0°C° 0.7 mm 7 mps 741 mmHg 88%
    05:00 +2°C° 0.7 mm 7 mps 740 mmHg 87%
    06:00 +2°C° 0.2 mm 7 mps 740 mmHg 86%
    07:00 +2°C° 0.2 mm 7 mps 740 mmHg 84%
    08:00 +3°C° 0.2 mm 7 mps 739 mmHg 83%
    09:00 +3°C° 0.9 mm 7 mps 739 mmHg 77%
    10:00 +3°C° 0.9 mm 7 mps 739 mmHg 71%
    11:00 +3°C° 0.9 mm 7 mps 739 mmHg 65%
    12:00 +2°C° 0.2 mm 8 mps 740 mmHg 61%
    13:00 +2°C° 0.2 mm 8 mps 740 mmHg 57%
    14:00 +4°C° 0.2 mm 8 mps 740 mmHg 53%
    15:00 +3°C° 0.1 mm 7 mps 740 mmHg 56%
    16:00 +2°C° 0.1 mm 5 mps 740 mmHg 58%
    17:00 +3°C° 0.1 mm 4 mps 740 mmHg 61%
    18:00 +1°C° 0 mm 4 mps 740 mmHg 65%
    19:00 +1°C° 0 mm 4 mps 740 mmHg 68%
    20:00 0°C° 0 mm 4 mps 741 mmHg 71%
    21:00 0°C° 0 mm 4 mps 740 mmHg 73%
    22:00 -1°C° 0 mm 4 mps 740 mmHg 74%
    23:00 -1°C° 0 mm 4 mps 740 mmHg 76%

    24 February, Monday

    Time Temperature Precipitation Wind Pressure Humidity
    00:00 -1°C° 0 mm 4 mps 739 mmHg 77%
    01:00 -2°C° 0 mm 4 mps 739 mmHg 78%
    02:00 -1°C° 0 mm 3 mps 739 mmHg 79%
    03:00 -1°C° 0 mm 3 mps 738 mmHg 81%
    04:00 -1°C° 0 mm 3 mps 738 mmHg 83%
    05:00 -1°C° 0 mm 3 mps 738 mmHg 85%
    06:00 -2°C° 0 mm 4 mps 738 mmHg 85%
    07:00 -2°C° 0 mm 4 mps 738 mmHg 85%
    08:00 -2°C° 0 mm 4 mps 738 mmHg 85%
    09:00 -1°C° 0 mm 5 mps 738 mmHg 85%
    10:00 -1°C° 0 mm 6 mps 738 mmHg 85%
    11:00 -1°C° 0 mm 7 mps 738 mmHg 85%
    12:00 0°C° 0 mm 7 mps 739 mmHg 74%
    13:00 +2°C° 0 mm 7 mps 739 mmHg 64%
    14:00 +2°C° 0 mm 8 mps 739 mmHg 53%
    15:00 +2°C° 0 mm 7 mps 740 mmHg 54%
    16:00 +2°C° 0 mm 6 mps 741 mmHg 56%
    17:00 +1°C° 0 mm 5 mps 741 mmHg 57%
    18:00 +1°C° 0 mm 4 mps 742 mmHg 61%
    19:00 0°C° 0 mm 4 mps 743 mmHg 65%
    20:00 -1°C° 0 mm 4 mps 743 mmHg 69%
    21:00 -1°C° 0 mm 4 mps 744 mmHg 71%
    22:00 -1°C° 0 mm 4 mps 744 mmHg 73%
    23:00 -1°C° 0 mm 4 mps 745 mmHg 75%

    25 February, Tuesday

    Time Temperature Precipitation Wind Pressure Humidity
    00:00 -1°C° 0 mm 3 mps 745 mmHg 78%
    01:00 -1°C° 0 mm 3 mps 745 mmHg 82%
    02:00 -1°C° 0 mm 3 mps 745 mmHg 85%
    03:00 -2°C° 0 mm 3 mps 745 mmHg 86%
    04:00 -2°C° 0 mm 3 mps 745 mmHg 87%
    05:00 -2°C° 0 mm 2 mps 745 mmHg 88%
    06:00 -2°C° 0 mm 2 mps 745 mmHg 87%
    07:00 -2°C° 0 mm 2 mps 745 mmHg 86%
    08:00 -1°C° 0 mm 2 mps 745 mmHg 85%
    09:00 0°C° 0 mm 3 mps 745 mmHg 78%
    10:00 0°C° 0 mm 4 mps 744 mmHg 72%
    11:00 +1°C° 0 mm 4 mps 744 mmHg 65%
    12:00 +1°C° 0.3 mm 5 mps 743 mmHg 75%
    13:00 0°C° 0.3 mm 5 mps 743 mmHg 84%
    14:00 0°C° 0.3 mm 5 mps 742 mmHg 94%
    15:00 0°C° 0.5 mm 5 mps 742 mmHg 93%
    16:00 0°C° 0.5 mm 4 mps 741 mmHg 92%
    17:00 +1°C° 0.5 mm 4 mps 741 mmHg 91%
    18:00 +1°C° 0 mm 4 mps 741 mmHg 91%
    19:00 +2°C° 0 mm 3 mps 741 mmHg 91%
    20:00 +3°C° 0 mm 3 mps 741 mmHg 90%
    21:00 +3°C° 0.1 mm 3 mps 741 mmHg 91%
    22:00 +3°C° 0.1 mm 3 mps 740 mmHg 92%
    23:00 +3°C° 0.1 mm 3 mps 740 mmHg 93%
    Show more